Regional Weather Roundup
Issued by NWS Kansas City/Pleasant Hill, MO

Home | Current Version | Previous Version | Text Only | Print | Product List | Glossary On
Versions: 1 2 3 4 5 6 7 8 9 10 11 12 13 14 15 16 17 18 19 20 21 22 23 24 25 26 27 28 29 30 31 32 33 34 35 36 37 38 39 40 41 42 43 44 45 46 47 48 49 50
000
ASUS43 KEAX 221111
RWREAX

WEATHER ROUNDUP FOR EASTERN KANSAS AND NORTHWEST MISSOURI
NATIONAL WEATHER SERVICE KANSAS CITY/PLEASANT HILL MO
600 AM CDT MON SEP 22 2014

KSZ040-057-103>105-MOZ028-029-037-043-221200-
...KANSAS CITY METROPOLITAN AREA...

CITY           SKY/WX    TMP DP  RH WIND       PRES   REMARKS
K.C. INTL      CLEAR     51  48  89 NE6       30.29S
K.C. DOWNTOWN  CLEAR     53  50  89 CALM      30.29R
LEES SUMMIT    CLEAR     53  49  86 NE6       30.29R
OLATHE - IXD   CLEAR     49  47  93 N3        30.30R
OLATHE - OJC   CLEAR     54  48  80 N3        30.28R
LAWRENCE       CLEAR     44  43  96 NW5       30.30R

$$

MOZ001>008-011>017-020>025-030>033-038>040-044>046-053-054-221200-
...NORTHERN AND CENTRAL MISSOURI...

CITY           SKY/WX    TMP DP  RH WIND       PRES   REMARKS
ST. JOSEPH     FOG       42  42 100 CALM      30.31R VSB 1/2
MOSBY          SUNNY     46  46 100 CALM      30.30R
WHITEMAN AFB   CLEAR     49  48  95 N6        30.28R
CLINTON        CLEAR     50  48  93 CALM      30.28R
SEDALIA        CLEAR     50  48  93 NW5       30.28R
WARSAW         NOT AVBL
MARSHALL       CLEAR     54  52  94 CALM      30.30R
CHILLICOTHE      N/A     48  45  89 CALM      30.31R
MOBERLY        CLEAR     48  43  81 NW5       30.28R
KIRKSVILLE     CLEAR     47  46  97 NW5       30.29R

$$

MOZ041-047>049-056>058-063>065-088>090-097-221200-
...EASTERN AND SOUTHERN MISSOURI...

CITY           SKY/WX    TMP DP  RH WIND       PRES   REMARKS
ST. LOUIS INTL CLEAR     54  49  83 N5        30.24R
SPIRIT OF STL  CLEAR     48  47  96 CALM      30.24R
COLUMBIA       CLEAR     49  48  97 NW6       30.26R
JEFFERSON CITY CLEAR     50  49  96 NW5       30.26R
MEXICO         CLEAR    N/A N/A N/A NW3       30.26R
HANNIBAL       CLEAR     50  46  87 CALM      30.26R
ROLLA          CLEAR     50  47  89 NW3       30.24R
LEBANON        CLEAR     50  48  93 CALM      30.27R
OSAGE BEACH    CLEAR     48  45  87 CALM      30.26R
SPRINGFIELD    CLEAR     50  46  86 CALM      30.26R
BRANSON        CLEAR     48  46  93 CALM      30.26R
NEVADA         CLEAR     50  48  93 CALM      30.30R
JOPLIN         CLEAR     51  49  92 NE3       30.27R
WEST PLAINS    CLEAR     50  46  86 N3        30.25R

$$

IAZ060-094-KSZ022-034>040-054-083-096-NEZ052-066-093-221200-
...KANSAS...SOUTHEAST NEBRASKA AND IOWA...

CITY           SKY/WX    TMP DP  RH WIND       PRES   REMARKS
TOPEKA         CLEAR     48  46  93 CALM      30.31R
MANHATTAN      CLEAR     44  43  96 CALM      30.30S
EMPORIA        CLEAR     50  47  89 CALM      30.29R
CHANUTE        CLEAR     49  48  97 N3        30.28R
WICHITA        PTCLDY    54  46  74 NW3       30.30R
OMAHA          PTCLDY    49  47  93 W3        30.31R
LINCOLN        CLEAR     45  43  93 CALM      30.32R
FALLS CITY     CLEAR     48  46  93 CALM      30.30R
LAMONI         CLEAR     50  47  89 CALM      30.30R
DES MOINES     CLEAR     50  46  86 NW3       30.29R

$$




USA.gov is the U.S. government's official web portal to all federal, state and local government web resources and services.